Regional Weather Roundup
Issued by NWS

Home | Current Version | Previous Version | Graphics & Text | Print | Product List | Glossary On
Versions: 1 2 3 4 5 6 7 8 9 10 11 12 13 14 15 16 17 18 19 20 21 22 23 24 25 26 27 28 29 30 31 32 33 34 35 36 37 38 39 40 41 42 43 44 45 46 47 48 49 50
204
ASUS45 KABQ 290001
RWRNM
NEW MEXICO REGIONAL WEATHER ROUNDUP
NATIONAL WEATHER SERVICE ALBUQUERQUE NM
600 PM MDT FRI APR 28 2017

NOTE: "FAIR" MEANS FEW OR NO CLOUDS BELOW 12,000 FEET AGL WITH NO
       SIGNIFICANT WEATHER OR OBSTRUCTIONS TO VISION.

      THIS PRODUCT IS RELEASED AS TWO VERSIONS.  ONE VERSION NEAR
      THE TOP OF THE HOUR CONTAINING PRELIMINARY DATA FROM ALBUQUERQUE
      AND OTHER STATIONS.  A FINAL VERSION WITH ADDITIONAL DATA IS
      ISSUED ABOUT 10 MINUTES AFTER THE HOUR.

NMZ501-503-504-510>518-290100-
NORTHWEST PLATEAU/NORTHCENTRAL MOUNTAINS

CITY           SKY/WX    TMP DP  RH WIND       PRES   REMARKS
FARMINGTON     PTSUNNY   45  26  47 E9        29.74R
6HR MIN TEMP:  33; 6HR MAX TEMP:  47; 6HR PCP:  0.03;

LOS ALAMOS     CLOUDY    36  35  99 S3        29.76R
SANTA FE       CLOUDY    39  37  92 SE3       29.74R
6HR MIN TEMP:  32; 6HR MAX TEMP:  39; 6HR PCP:  0.22;

TAOS             N/A     41  25  52 W5        29.73S
ANGEL FIRE     PTSUNNY   35  24  65 W8        29.74S WCI  28

$$
NMZ402-403-502-505>509-290100-
WESTCENTRAL MOUNTAINS/SOUTHWEST MOUNTAINS

CITY           SKY/WX    TMP DP  RH WIND       PRES   REMARKS
GALLUP         LGT RAIN  41  29  62 N9        29.77S
6HR MIN TEMP:  36; 6HR MAX TEMP:  45; 6HR PCP: TRACE;

GRANTS         LGT RAIN  35  34  97 N17       29.78S WCI  25
SILVER CITY    PTSUNNY   68  41  36 W25G33    29.67S

$$
NMZ407-409-411-412-290100-
SOUTHERN DESERTS

CITY           SKY/WX    TMP DP  RH WIND       PRES   REMARKS
DEMING         CLOUDY    76  39  26 W31G39    29.59R
6HR MIN TEMP:  75; 6HR MAX TEMP:  81;

LAS CRUCES     PTSUNNY   78  34  20 SW28G38   29.60S
ALAMOGORDO     FAIR      79  34  19 SW21G30   29.57F
T OR C         CLOUDY    59  36  42 N12       29.62R
6HR MIN TEMP:  59; 6HR MAX TEMP:  76;


$$
NMZ519>523-290100-
CENTRAL VALLEYS/CENTRAL HIGHLANDS

CITY           SKY/WX    TMP DP  RH WIND       PRES   REMARKS
ALBUQUERQUE    LGT RAIN  40  37  89 SE8       29.75S WCI  34
6HR MIN TEMP:  39; 6HR MAX TEMP:  45; 6HR PCP:  0.10;

DOUBLE EAGLE   LGT RAIN  39  37  93 VRB6      29.75S WCI  35
MORIARTY ARPT  TSTM      36  35  96 N10       29.77R WCI  28
6HR MIN TEMP:  35; 6HR MAX TEMP:  43; 6HR PCP:  0.05;

CLINES CORNERS HVY SNOW  32  31  96 NW21G32   29.74R VSB 1/4 WCI  20
6HR MIN TEMP:  32; 6HR MAX TEMP:  42; 6HR PCP:  0.06;

BELEN          RAIN      41  38  89 NW8       29.76R
6HR MIN TEMP:  41; 6HR MAX TEMP:  45; 6HR PCP:  0.05;

SOCORRO        LGT RAIN  46  39  74 N17G23    29.72R
6HR MIN TEMP:  46; 6HR MAX TEMP:  55;


$$
NMZ524>526-539-540-290100-
SOUTHCENTRAL MOUNTAINS

CITY           SKY/WX    TMP DP  RH WIND       PRES   REMARKS
RUIDOSO        NOT AVBL

$$
NMZ527>531-290100-
NORTHEAST HIGHLANDS/NORTHEAST PLAINS

CITY           SKY/WX    TMP DP  RH WIND       PRES   REMARKS
LAS VEGAS      CLOUDY    39  34  82 S8        29.71F WCI  33
6HR MIN TEMP:  32; 6HR MAX TEMP:  42; 6HR PCP:  0.20;

RATON          FAIR      42  33  70 S8        29.71R
6HR MIN TEMP:  36; 6HR MAX TEMP:  48; 6HR PCP:  0.04;

CLAYTON        LGT RAIN  41  41 100 SE8       29.75F
6HR MIN TEMP:  40; 6HR MAX TEMP:  51; 6HR PCP:  0.68;


$$
NMZ532>537-290100-
EASTCENTRAL PLAINS

CITY           SKY/WX    TMP DP  RH WIND       PRES   REMARKS
SANTA ROSA     CLOUDY    52  35  51 N15       29.67F
TUCUMCARI      FAIR      55  41  59 N21G26    29.68S
6HR MIN TEMP:  55; 6HR MAX TEMP:  66; 6HR PCP: TRACE;

CANNON AFB     FAIR      56  38  50 N29G39    29.64R
6HR MIN TEMP:  55; 6HR MAX TEMP:  76; 6HR PCP: TRACE;

CLOVIS AIRPORT FAIR      57  37  47 N35G41    29.67R

$$
NMZ028-029-538-290100-
SOUTHEAST PLAINS

CITY           SKY/WX    TMP DP  RH WIND       PRES   REMARKS
ROSWELL        PTSUNNY   69  35  28 N30G39    29.59R
6HR MIN TEMP:  69; 6HR MAX TEMP:  87;

ARTESIA        FAIR      84  37  18 W17       29.52S
CARLSBAD       FAIR      87  31  13 SW17G32   29.50S
6HR MIN TEMP:  83; 6HR MAX TEMP:  90;

HOBBS          SUNNY     84  30  14 SW18      29.56F


$$




USA.gov is the U.S. government's official web portal to all federal, state and local government web resources and services.